Previsão horária em Julianow

Hoje, 24 Junho, Quinta-feira

Tempo Temperatura Precipitação Vento Pressão Humidade
00:00 +20°C° 0 mm 2 m/s 749 mmHg 92%
01:00 +19°C° 0 mm 2 m/s 749 mmHg 94%
02:00 +19°C° 0 mm 2 m/s 749 mmHg 95%
03:00 +19°C° 0 mm 2 m/s 748 mmHg 96%
04:00 +19°C° 0 mm 2 m/s 748 mmHg 97%
05:00 +20°C° 0 mm 2 m/s 748 mmHg 94%
06:00 +21°C° 0 mm 3 m/s 748 mmHg 91%
07:00 +22°C° 0 mm 3 m/s 748 mmHg 88%
08:00 +24°C° 0.2 mm 2 m/s 748 mmHg 85%
09:00 +25°C° 0.2 mm 2 m/s 748 mmHg 82%
10:00 +26°C° 0.2 mm 1 m/s 748 mmHg 78%
11:00 +27°C° 0.3 mm 2 m/s 748 mmHg 73%
12:00 +29°C° 0.3 mm 2 m/s 747 mmHg 68%
13:00 +30°C° 0.3 mm 3 m/s 747 mmHg 63%
14:00 +30°C° 1.9 mm 3 m/s 746 mmHg 66%
15:00 +29°C° 1.9 mm 3 m/s 746 mmHg 68%
16:00 +28°C° 1.9 mm 3 m/s 745 mmHg 71%
17:00 +27°C° 2.7 mm 3 m/s 745 mmHg 77%
18:00 +25°C° 2.7 mm 4 m/s 745 mmHg 83%
19:00 +22°C° 2.7 mm 4 m/s 746 mmHg 89%
20:00 +21°C° 0.7 mm 4 m/s 746 mmHg 91%
21:00 +21°C° 0.7 mm 3 m/s 746 mmHg 93%
22:00 +20°C° 0.7 mm 3 m/s 746 mmHg 94%
23:00 +19°C° 0 mm 3 m/s 746 mmHg 95%

Amanhã, 25 Junho, Sexta-feira

Tempo Temperatura Precipitação Vento Pressão Humidade
00:00 +18°C° 0 mm 3 m/s 746 mmHg 96%
01:00 +18°C° 0 mm 2 m/s 745 mmHg 96%
02:00 +18°C° 1 mm 3 m/s 745 mmHg 97%
03:00 +17°C° 1 mm 3 m/s 745 mmHg 97%
04:00 +17°C° 1 mm 4 m/s 745 mmHg 97%
05:00 +17°C° 0.4 mm 4 m/s 746 mmHg 95%
06:00 +17°C° 0.4 mm 4 m/s 746 mmHg 94%
07:00 +17°C° 0.4 mm 4 m/s 746 mmHg 92%
08:00 +18°C° 0.1 mm 4 m/s 746 mmHg 91%
09:00 +18°C° 0.1 mm 4 m/s 747 mmHg 91%
10:00 +17°C° 0.1 mm 5 m/s 747 mmHg 90%
11:00 +17°C° 0 mm 5 m/s 747 mmHg 86%
12:00 +19°C° 0 mm 5 m/s 747 mmHg 82%
13:00 +20°C° 0 mm 5 m/s 748 mmHg 78%
14:00 +20°C° 0 mm 4 m/s 748 mmHg 78%
15:00 +20°C° 0 mm 4 m/s 748 mmHg 77%
16:00 +20°C° 0 mm 3 m/s 748 mmHg 76%
17:00 +19°C° 0 mm 3 m/s 747 mmHg 78%
18:00 +19°C° 0 mm 3 m/s 747 mmHg 80%
19:00 +19°C° 0 mm 2 m/s 747 mmHg 81%
20:00 +18°C° 0 mm 2 m/s 748 mmHg 84%
21:00 +17°C° 0 mm 2 m/s 748 mmHg 87%
22:00 +16°C° 0 mm 2 m/s 748 mmHg 90%
23:00 +16°C° 0 mm 2 m/s 748 mmHg 90%

Depois de amanhã, 26 Junho, Sábado

Tempo Temperatura Precipitação Vento Pressão Humidade
00:00 +15°C° 0 mm 2 m/s 748 mmHg 91%
01:00 +15°C° 0 mm 2 m/s 748 mmHg 92%
02:00 +15°C° 0 mm 2 m/s 748 mmHg 93%
03:00 +15°C° 0 mm 2 m/s 749 mmHg 93%
04:00 +15°C° 0 mm 2 m/s 749 mmHg 93%
05:00 +16°C° 0 mm 2 m/s 749 mmHg 88%
06:00 +18°C° 0 mm 2 m/s 749 mmHg 82%
07:00 +19°C° 0 mm 3 m/s 749 mmHg 76%
08:00 +20°C° 0 mm 3 m/s 749 mmHg 71%
09:00 +21°C° 0 mm 3 m/s 750 mmHg 65%
10:00 +22°C° 0 mm 3 m/s 750 mmHg 60%
11:00 +24°C° 0 mm 3 m/s 750 mmHg 58%
12:00 +24°C° 0 mm 2 m/s 750 mmHg 55%
13:00 +25°C° 0 mm 2 m/s 750 mmHg 53%
14:00 +25°C° 0 mm 2 m/s 749 mmHg 53%
15:00 +25°C° 0 mm 2 m/s 749 mmHg 54%
16:00 +25°C° 0 mm 1 m/s 749 mmHg 54%
17:00 +24°C° 0 mm 1 m/s 749 mmHg 59%
18:00 +23°C° 0 mm 1 m/s 749 mmHg 64%
19:00 +22°C° 0 mm 1 m/s 749 mmHg 68%
20:00 +21°C° 0 mm 1 m/s 749 mmHg 70%
21:00 +20°C° 0 mm 1 m/s 749 mmHg 72%
22:00 +17°C° 0 mm 0 m/s 749 mmHg 74%
23:00 +16°C° 0 mm 0 m/s 749 mmHg 76%

27 Junho, Domingo

Tempo Temperatura Precipitação Vento Pressão Humidade
00:00 +16°C° 0 mm 0 m/s 749 mmHg 78%
01:00 +16°C° 0 mm 0 m/s 749 mmHg 80%
02:00 +15°C° 0 mm 0 m/s 749 mmHg 81%
03:00 +15°C° 0 mm 0 m/s 749 mmHg 82%
04:00 +16°C° 0 mm 1 m/s 750 mmHg 83%
05:00 +18°C° 0 mm 1 m/s 750 mmHg 78%
06:00 +20°C° 0 mm 1 m/s 750 mmHg 73%
07:00 +22°C° 0 mm 1 m/s 750 mmHg 68%
08:00 +23°C° 0 mm 1 m/s 750 mmHg 64%
09:00 +24°C° 0 mm 1 m/s 750 mmHg 59%
10:00 +26°C° 0 mm 1 m/s 750 mmHg 54%
11:00 +26°C° 0 mm 1 m/s 749 mmHg 52%
12:00 +27°C° 0 mm 1 m/s 749 mmHg 50%
13:00 +27°C° 0 mm 1 m/s 749 mmHg 48%
14:00 +27°C° 0 mm 1 m/s 749 mmHg 51%
15:00 +26°C° 0 mm 1 m/s 749 mmHg 55%
16:00 +26°C° 0 mm 1 m/s 749 mmHg 59%
17:00 +25°C° 0 mm 1 m/s 749 mmHg 62%
18:00 +24°C° 0 mm 1 m/s 749 mmHg 65%
19:00 +23°C° 0 mm 1 m/s 749 mmHg 68%
20:00 +23°C° 0 mm 1 m/s 749 mmHg 67%
21:00 +22°C° 0 mm 1 m/s 749 mmHg 67%
22:00 +22°C° 0 mm 1 m/s 749 mmHg 66%
23:00 +22°C° 0 mm 1 m/s 749 mmHg 67%

28 Junho, Segunda-feira

Tempo Temperatura Precipitação Vento Pressão Humidade
00:00 +21°C° 0 mm 1 m/s 749 mmHg 68%
01:00 +21°C° 0 mm 1 m/s 749 mmHg 69%
02:00 +21°C° 0 mm 1 m/s 749 mmHg 71%
03:00 +20°C° 0 mm 1 m/s 749 mmHg 72%
04:00 +20°C° 0 mm 1 m/s 749 mmHg 73%
05:00 +21°C° 0 mm 1 m/s 749 mmHg 70%
06:00 +23°C° 0 mm 1 m/s 749 mmHg 67%
07:00 +24°C° 0 mm 1 m/s 750 mmHg 64%
08:00 +25°C° 0 mm 1 m/s 750 mmHg 59%
09:00 +26°C° 0 mm 1 m/s 750 mmHg 54%
10:00 +28°C° 0 mm 1 m/s 750 mmHg 49%
11:00 +28°C° 0 mm 1 m/s 750 mmHg 47%
12:00 +29°C° 0 mm 1 m/s 750 mmHg 46%
13:00 +29°C° 0 mm 1 m/s 749 mmHg 44%
14:00 +29°C° 0 mm 1 m/s 749 mmHg 48%
15:00 +28°C° 0 mm 2 m/s 749 mmHg 51%
16:00 +28°C° 0 mm 2 m/s 749 mmHg 54%
17:00 +27°C° 0 mm 2 m/s 749 mmHg 59%
18:00 +26°C° 0 mm 2 m/s 749 mmHg 64%
19:00 +25°C° 0 mm 2 m/s 749 mmHg 68%
20:00 +24°C° 0 mm 2 m/s 749 mmHg 69%
21:00 +21°C° 0 mm 2 m/s 749 mmHg 71%
22:00 +20°C° 0 mm 3 m/s 749 mmHg 72%
23:00 +20°C° 0 mm 2 m/s 749 mmHg 73%

29 Junho, Terça-feira

Tempo Temperatura Precipitação Vento Pressão Humidade
00:00 +20°C° 0 mm 2 m/s 749 mmHg 75%
01:00 +19°C° 0 mm 2 m/s 749 mmHg 76%
02:00 +19°C° 0 mm 2 m/s 749 mmHg 78%
03:00 +19°C° 0 mm 2 m/s 749 mmHg 79%
04:00 +19°C° 0 mm 2 m/s 749 mmHg 80%
05:00 +20°C° 0 mm 3 m/s 749 mmHg 76%
06:00 +22°C° 0 mm 3 m/s 750 mmHg 72%
07:00 +25°C° 0 mm 3 m/s 750 mmHg 67%
08:00 +26°C° 0 mm 3 m/s 750 mmHg 62%
09:00 +27°C° 0 mm 3 m/s 750 mmHg 58%
10:00 +29°C° 0 mm 3 m/s 750 mmHg 53%
11:00 +29°C° 0 mm 3 m/s 750 mmHg 50%
12:00 +30°C° 0 mm 3 m/s 749 mmHg 48%
13:00 +31°C° 0 mm 2 m/s 749 mmHg 45%
14:00 +31°C° 0 mm 2 m/s 749 mmHg 45%
15:00 +31°C° 0 mm 2 m/s 749 mmHg 45%
16:00 +31°C° 0 mm 2 m/s 749 mmHg 45%
17:00 +29°C° 0 mm 2 m/s 749 mmHg 52%
18:00 +28°C° 0 mm 2 m/s 749 mmHg 58%
19:00 +27°C° 0 mm 2 m/s 749 mmHg 64%
20:00 +25°C° 0.1 mm 2 m/s 749 mmHg 67%
21:00 +24°C° 0.1 mm 3 m/s 749 mmHg 69%
22:00 +22°C° 0.1 mm 3 m/s 749 mmHg 72%
23:00 +21°C° 0.1 mm 3 m/s 749 mmHg 73%
Mostrar mais

Necessitamos do seu Consentimento

A Meteoprog e os seus Fornecedores de Serviços podem armazenar e aceder a dados pessoais como cookies, identificadores do dispositivo ou outras tecnologias semelhantes existentes no seu dispositivo e processar estes dados para personalizar conteúdos e anúncios, assim como funcionalidades nas redes sociais e análise de tráfego.

  • Armazenar e/ou aceder a informações no seu dispositivo

    Os cookies, identificadores do dispositivo ou outras informações podem ser armazenados ou acedidos no seu dispositivo, para os fins acima indicados.

  • Anúncios e conteúdos personalizados, medição de anúncios e conteúdos, dados sobre o público-alvo e desenvolvimento de produtos

    Os anúncios e os conteúdos podem ser personalizados com base num perfil. Podem ser adicionados dados adicionais para uma maior personalização dos anúncios e dos conteúdos. A eficácia dos anúncios e dos conteúdos pode ser medida. Podem ser obtidas informações sobre o público que visualizou os anúncios e os conteúdos. Estes dados podem ser usados para desenvolver ou melhorar sistemas, softwares ou a experiência do utilizador.

Ao clicar em "Eu concordo”, permitirá o uso de cookies, identificadores do dispositivo e web beacons mencionados ou outras tecnologias semelhantes. As configurações do navegador do seu dispositivo podem ser alteradas.

Para certos fins, podem ser invocados interesses legítimos ao invés de consentimento. Pode ler mais informação sobre este assunto na nossa Política de Privacidade e Cookies.